When you browse on this site, cookies collect data to enhance your experience and personalize the content and advertising you see.
Visit our Privacy Policy to learn more. By continuing to use the site, you agree to this use of cookies and data.
  • en Suisse
  • Liste des pays
  • À 7 jours
  • Température de l'eau
  • Carte satellitaire
  • Carte météo
  • Widgets météo
  • user-avatar
    Se connecter

    Météo par heure à Maslovo-Volosevich

    Ce jour, 20 Juin, Jeudi

    Heure Température Précipitation Vent Pression Humidité
    00:00 +18°C° 0 mm 1 m/s 746 mmHg 82%
    01:00 +18°C° 0 mm 1 m/s 746 mmHg 82%
    02:00 +18°C° 0 mm 1 m/s 746 mmHg 81%
    03:00 +16°C° 0 mm 1 m/s 747 mmHg 81%
    04:00 +18°C° 0 mm 1 m/s 747 mmHg 81%
    05:00 +18°C° 0 mm 1 m/s 747 mmHg 81%
    06:00 +19°C° 0 mm 1 m/s 747 mmHg 81%
    07:00 +21°C° 0 mm 1 m/s 747 mmHg 76%
    08:00 +22°C° 0 mm 1 m/s 747 mmHg 71%
    09:00 +24°C° 0 mm 1 m/s 747 mmHg 66%
    10:00 +25°C° 0 mm 1 m/s 747 mmHg 62%
    11:00 +26°C° 0 mm 1 m/s 747 mmHg 58%
    12:00 +27°C° 0 mm 1 m/s 747 mmHg 53%
    13:00 +27°C° 0 mm 1 m/s 747 mmHg 52%
    14:00 +28°C° 0 mm 1 m/s 747 mmHg 50%
    15:00 +28°C° 0 mm 1 m/s 747 mmHg 49%
    16:00 +28°C° 0 mm 1 m/s 747 mmHg 52%
    17:00 +28°C° 0 mm 1 m/s 747 mmHg 56%
    18:00 +27°C° 0 mm 1 m/s 747 mmHg 60%
    19:00 +26°C° 0 mm 1 m/s 747 mmHg 63%
    20:00 +24°C° 0 mm 1 m/s 747 mmHg 66%
    21:00 +22°C° 0 mm 1 m/s 747 mmHg 69%
    22:00 +21°C° 0 mm 1 m/s 747 mmHg 71%
    23:00 +20°C° 0 mm 1 m/s 747 mmHg 73%

    Demain, 21 Juin, Vendredi

    Heure Température Précipitation Vent Pression Humidité
    00:00 +20°C° 0 mm 1 m/s 747 mmHg 75%
    01:00 +19°C° 0 mm 1 m/s 748 mmHg 75%
    02:00 +19°C° 0 mm 1 m/s 748 mmHg 76%
    03:00 +19°C° 0 mm 1 m/s 748 mmHg 76%
    04:00 +19°C° 0 mm 1 m/s 748 mmHg 77%
    05:00 +20°C° 0 mm 1 m/s 748 mmHg 77%
    06:00 +21°C° 0 mm 1 m/s 748 mmHg 78%
    07:00 +22°C° 0 mm 1 m/s 748 mmHg 74%
    08:00 +24°C° 0 mm 1 m/s 748 mmHg 71%
    09:00 +25°C° 0 mm 2 m/s 749 mmHg 68%
    10:00 +26°C° 0 mm 2 m/s 749 mmHg 63%
    11:00 +27°C° 0 mm 2 m/s 748 mmHg 59%
    12:00 +28°C° 0 mm 2 m/s 748 mmHg 55%
    13:00 +28°C° 0 mm 2 m/s 748 mmHg 56%
    14:00 +28°C° 0 mm 2 m/s 748 mmHg 57%
    15:00 +28°C° 0 mm 2 m/s 748 mmHg 59%
    16:00 +28°C° 0 mm 2 m/s 748 mmHg 62%
    17:00 +27°C° 0 mm 2 m/s 748 mmHg 65%
    18:00 +27°C° 0 mm 2 m/s 748 mmHg 68%
    19:00 +26°C° 0 mm 2 m/s 748 mmHg 70%
    20:00 +24°C° 0 mm 2 m/s 748 mmHg 73%
    21:00 +21°C° 0 mm 2 m/s 748 mmHg 75%
    22:00 +21°C° 0 mm 2 m/s 748 mmHg 77%
    23:00 +20°C° 0 mm 2 m/s 748 mmHg 78%

    Après-demain, 22 Juin, Samedi

    Heure Température Précipitation Vent Pression Humidité
    00:00 +19°C° 0 mm 2 m/s 748 mmHg 80%
    01:00 +19°C° 0 mm 2 m/s 748 mmHg 81%
    02:00 +19°C° 0 mm 2 m/s 748 mmHg 82%
    03:00 +19°C° 0 mm 2 m/s 748 mmHg 83%
    04:00 +19°C° 0 mm 2 m/s 748 mmHg 83%
    05:00 +19°C° 0 mm 2 m/s 748 mmHg 83%
    06:00 +20°C° 0 mm 2 m/s 748 mmHg 82%
    07:00 +21°C° 0 mm 2 m/s 748 mmHg 79%
    08:00 +24°C° 0 mm 3 m/s 748 mmHg 76%
    09:00 +25°C° 0 mm 3 m/s 748 mmHg 73%
    10:00 +26°C° 0 mm 4 m/s 748 mmHg 68%
    11:00 +27°C° 0 mm 4 m/s 748 mmHg 63%
    12:00 +28°C° 0 mm 4 m/s 748 mmHg 59%
    13:00 +28°C° 0 mm 4 m/s 748 mmHg 59%
    14:00 +29°C° 0 mm 4 m/s 748 mmHg 58%
    15:00 +29°C° 0 mm 4 m/s 748 mmHg 58%
    16:00 +28°C° 0 mm 4 m/s 747 mmHg 62%
    17:00 +28°C° 0 mm 3 m/s 747 mmHg 66%
    18:00 +28°C° 0 mm 3 m/s 747 mmHg 70%
    19:00 +26°C° 0 mm 3 m/s 747 mmHg 72%
    20:00 +25°C° 0 mm 2 m/s 747 mmHg 75%
    21:00 +23°C° 0 mm 2 m/s 747 mmHg 78%
    22:00 +23°C° 0 mm 2 m/s 747 mmHg 79%
    23:00 +21°C° 0 mm 2 m/s 748 mmHg 81%

    23 Juin, Dimanche

    Heure Température Précipitation Vent Pression Humidité
    00:00 +20°C° 0 mm 2 m/s 748 mmHg 82%
    01:00 +20°C° 0 mm 2 m/s 748 mmHg 83%
    02:00 +20°C° 0 mm 2 m/s 748 mmHg 84%
    03:00 +19°C° 0 mm 2 m/s 748 mmHg 85%
    04:00 +20°C° 0 mm 2 m/s 748 mmHg 85%
    05:00 +20°C° 0 mm 2 m/s 748 mmHg 85%
    06:00 +20°C° 0 mm 2 m/s 748 mmHg 84%
    07:00 +23°C° 0 mm 2 m/s 748 mmHg 80%
    08:00 +25°C° 0 mm 2 m/s 748 mmHg 76%
    09:00 +26°C° 0 mm 3 m/s 748 mmHg 71%
    10:00 +27°C° 0.2 mm 3 m/s 748 mmHg 69%
    11:00 +27°C° 0.2 mm 3 m/s 748 mmHg 66%
    12:00 +28°C° 0.2 mm 4 m/s 748 mmHg 64%
    13:00 +28°C° 0.1 mm 4 m/s 748 mmHg 62%
    14:00 +29°C° 0.1 mm 4 m/s 748 mmHg 61%
    15:00 +29°C° 0.1 mm 4 m/s 748 mmHg 59%
    16:00 +29°C° 0.4 mm 3 m/s 748 mmHg 63%
    17:00 +28°C° 0.4 mm 3 m/s 748 mmHg 67%
    18:00 +28°C° 0.4 mm 2 m/s 748 mmHg 70%
    19:00 +26°C° 0.1 mm 2 m/s 748 mmHg 75%
    20:00 +25°C° 0.1 mm 2 m/s 748 mmHg 79%
    21:00 +23°C° 0.1 mm 1 m/s 748 mmHg 84%
    22:00 +21°C° 0 mm 2 m/s 749 mmHg 87%
    23:00 +20°C° 0 mm 2 m/s 749 mmHg 90%

    24 Juin, Lundi

    Heure Température Précipitation Vent Pression Humidité
    00:00 +20°C° 0 mm 3 m/s 749 mmHg 94%
    01:00 +19°C° 0 mm 3 m/s 749 mmHg 91%
    02:00 +18°C° 0 mm 4 m/s 749 mmHg 89%
    03:00 +17°C° 0 mm 4 m/s 749 mmHg 87%
    04:00 +17°C° 0 mm 4 m/s 749 mmHg 86%
    05:00 +17°C° 0 mm 4 m/s 749 mmHg 84%
    06:00 +17°C° 0 mm 4 m/s 750 mmHg 83%
    07:00 +18°C° 0 mm 4 m/s 750 mmHg 78%
    08:00 +19°C° 0 mm 5 m/s 750 mmHg 73%
    09:00 +20°C° 0 mm 5 m/s 750 mmHg 68%
    10:00 +21°C° 0.1 mm 5 m/s 750 mmHg 67%
    11:00 +21°C° 0.1 mm 5 m/s 750 mmHg 65%
    12:00 +22°C° 0.1 mm 5 m/s 751 mmHg 64%
    13:00 +22°C° 0 mm 5 m/s 750 mmHg 63%
    14:00 +23°C° 0 mm 5 m/s 750 mmHg 62%
    15:00 +23°C° 0 mm 5 m/s 750 mmHg 61%
    16:00 +23°C° 0 mm 5 m/s 750 mmHg 63%
    17:00 +22°C° 0 mm 5 m/s 750 mmHg 65%
    18:00 +22°C° 0 mm 4 m/s 750 mmHg 67%
    19:00 +21°C° 0 mm 4 m/s 750 mmHg 70%
    20:00 +19°C° 0 mm 3 m/s 751 mmHg 73%
    21:00 +18°C° 0 mm 3 m/s 751 mmHg 76%
    22:00 +17°C° 0 mm 3 m/s 751 mmHg 74%
    23:00 +17°C° 0 mm 3 m/s 751 mmHg 73%

    25 Juin, Mardi

    Heure Température Précipitation Vent Pression Humidité
    00:00 +16°C° 0 mm 3 m/s 751 mmHg 71%
    01:00 +14°C° 0 mm 3 m/s 751 mmHg 71%
    02:00 +14°C° 0 mm 3 m/s 751 mmHg 72%
    03:00 +13°C° 0 mm 3 m/s 752 mmHg 72%
    04:00 +14°C° 0 mm 3 m/s 752 mmHg 74%
    05:00 +14°C° 0 mm 3 m/s 752 mmHg 76%
    06:00 +14°C° 0 mm 3 m/s 752 mmHg 78%
    07:00 +16°C° 0 mm 3 m/s 752 mmHg 73%
    08:00 +18°C° 0 mm 3 m/s 752 mmHg 68%
    09:00 +19°C° 0 mm 3 m/s 752 mmHg 63%
    10:00 +20°C° 0 mm 3 m/s 752 mmHg 59%
    11:00 +21°C° 0 mm 3 m/s 752 mmHg 56%
    12:00 +22°C° 0 mm 3 m/s 752 mmHg 52%
    13:00 +22°C° 0 mm 3 m/s 752 mmHg 53%
    14:00 +22°C° 0 mm 3 m/s 751 mmHg 53%
    15:00 +22°C° 0 mm 3 m/s 751 mmHg 54%
    16:00 +22°C° 0 mm 3 m/s 751 mmHg 56%
    17:00 +22°C° 0 mm 3 m/s 750 mmHg 59%
    18:00 +21°C° 0 mm 2 m/s 750 mmHg 61%
    19:00 +20°C° 0 mm 2 m/s 750 mmHg 65%
    20:00 +19°C° 0 mm 1 m/s 750 mmHg 69%
    21:00 +16°C° 0 mm 1 m/s 750 mmHg 73%
    22:00 +16°C° 0 mm 1 m/s 750 mmHg 74%
    23:00 +15°C° 0 mm 0 m/s 750 mmHg 74%
    Voir plus